Location: Monrovia
(34.7865°N, 86.7139°W)
Time: 15:11:09
(UTC+00:00)

Cosmos 2278 Rocket - Pass Details

Date: 14 July 2020
Orbit: 841 x 845 km, 71.0° (Epoch: 12 August)

Event Time Altitude Azimuth Distance (km) Brightness Sun altitude
Rises 01:55:40 0° 350° (N) 3,408 6.1 -10.4°
Reaches altitude 10° 01:58:29 10° 2° (N) 2,469 5.1 -10.8°
Maximum altitude 02:03:18 28° 60° (ENE) 1,539 3.4 -11.6°
Enters shadow 02:06:54 15° 110° (ESE) 2,113 3.7 -12.2°
